Temp
-21 -21 -21 -21 -21 -20 -19 -18 -18 -17 -17 -17 -17 -18 -17 -17 -17 -17 -17 -17 -17 -18 -18 -18 -18 -17 -16 -16 -16 -15 -15 -15 -15 -15 -16 -15 -15 -15 -14 -14 -13 -13
-21 -21 -21 -21 -20 -19 -19 -18 -18 -17 -17 -17 -18 -18 -17 -17 -17 -17 -17 -17 -17 -17 -18 -18 -18 -17 -17 -16 -15 -15 -15 -15 -15 -15 -16 -16 -15 -15 -15 -14 -14 -14
-20 -20 -21 -20 -20 -19 -19 -19 -18 -18 -17 -18 -18 -18 -17 -17 -17 -18 -17 -17 -17 -17 -17 -18 -18 -18 -17 -16 -16 -15 -15 -16 -15 -15 -16 -16 -16 -16 -15 -15 -14 -14
-20 -20 -20 -20 -20 -19 -19 -19 -18 -18 -18 -18 -17 -17 -17 -17 -18 -18 -17 -16 -16 -17 -17 -17 -17 -18 -18 -17 -16 -16 -16 -16 -16 -16 -16 -16 -16 -16 -16 -15 -15 -14
-20 -20 -20 -20 -20 -19 -19 -19 -18 -18 -18 -17 -17 -17 -17 -18 -18 -17 -17 -16 -16 -17 -17 -17 -17 -18 -18 -17 -17 -16 -16 -16 -16 -16 -16 -16 -16 -16 -16 -16 -15 -15
-20 -20 -20 -20 -20 -19 -19 -18 -18 -17 -17 -17 -17 -17 -17 -17 -18 -17 -17 -16 -16 -17 -17 -17 -17 -18 -18 -18 -17 -17 -17 -16 -17 -17 -17 -17 -16 -16 -16 -16 -16 -15
-21 -21 -20 -20 -20 -20 -19 -18 -18 -17 -17 -17 -17 -17 -17 -17 -17 -17 -17 -17 -17 -17 -17 -17 -17 -18 -18 -18 -18 -17 -17 -17 -17 -17 -17 -17 -17 -17 -16 -16 -16 -16
-22 -21 -21 -21 -20 -20 -20 -19 -18 -18 -17 -17 -17 -17 -17 -17 -16 -16 -17 -17 -17 -17 -17 -17 -17 -18 -18 -18 -18 -18 -18 -17 -17 -17 -17 -17 -17 -17 -17 -17 -17 -17
-23 -23 -22 -22 -21 -20 -20 -20 -19 -19 -18 -17 -17 -16 -16 -16 -16 -16 -17 -17 -17 -17 -17 -17 -17 -18 -18 -19 -18 -18 -18 -18 -18 -18 -17 -17 -17 -17 -17 -17 -17 -17
-24 -24 -24 -23 -22 -21 -21 -20 -20 -19 -19 -18 -17 -16 -16 -16 -16 -16 -16 -17 -17 -16 -16 -16 -17 -17 -18 -19 -19 -18 -18 -18 -18 -18 -18 -17 -17 -17 -17 -17 -17 -17
-25 -25 -24 -24 -23 -22 -22 -21 -20 -20 -19 -18 -17 -17 -16 -16 -16 -16 -16 -16 -16 -16 -16 -16 -17 -17 -18 -19 -19 -18 -18 -18 -18 -18 -18 -17 -17 -17 -17 -17 -17 -17
-26 -25 -25 -25 -24 -23 -22 -21 -21 -20 -19 -18 -17 -17 -17 -17 -16 -16 -16 -16 -16 -16 -16 -16 -17 -17 -18 -19 -19 -18 -18 -18 -18 -18 -18 -17 -17 -17 -17 -17 -17 -17
-26 -26 -26 -25 -24 -23 -22 -22 -21 -20 -19 -19 -18 -18 -17 -17 -16 -16 -16 -16 -16 -16 -16 -17 -17 -18 -18 -19 -19 -19 -18 -18 -18 -18 -18 -18 -18 -17 -17 -17 -17 -17
-26 -26 -26 -25 -24 -23 -23 -22 -21 -20 -19 -19 -18 -18 -18 -17 -17 -17 -16 -16 -17 -17 -17 -17 -17 -18 -18 -19 -19 -19 -19 -18 -18 -18 -18 -18 -18 -18 -18 -18 -17 -17
-27 -26 -26 -25 -25 -24 -23 -22 -21 -20 -19 -19 -18 -18 -18 -17 -17 -17 -17 -17 -17 -17 -17 -17 -17 -18 -18 -19 -19 -19 -19 -19 -19 -18 -18 -18 -18 -18 -18 -18 -18 -17
-26 -26 -26 -25 -25 -24 -23 -22 -21 -20 -20 -19 -18 -18 -18 -18 -17 -17 -17 -17 -17 -17 -17 -17 -17 -17 -18 -18 -19 -19 -19 -19 -19 -18 -18 -18 -18 -18 -18 -18 -18 -18
-25 -25 -25 -25 -24 -24 -23 -22 -21 -20 -20 -19 -19 -18 -18 -18 -18 -18 -17 -17 -17 -17 -17 -17 -17 -17 -17 -18 -18 -19 -19 -19 -18 -18 -18 -18 -18 -18 -18 -18 -18 -18
-24 -24 -24 -23 -23 -23 -22 -22 -21 -20 -20 -20 -19 -19 -19 -18 -18 -18 -18 -18 -17 -17 -17 -17 -17 -17 -17 -17 -18 -18 -18 -18 -19 -19 -18 -18 -18 -18 -18 -18 -18 -18
-23 -23 -23 -22 -22 -22 -21 -21 -21 -21 -20 -20 -20 -19 -19 -19 -19 -19 -18 -18 -18 -18 -18 -17 -17 -17 -17 -17 -17 -18 -18 -18 -18 -18 -18 -18 -18 -18 -18 -18 -18 -18
-22 -22 -22 -21 -21 -21 -21 -21 -21 -20 -20 -20 -20 -20 -19 -19 -19 -19 -19 -19 -19 -19 -18 -18 -18 -18 -18 -18 -18 -18 -18 -18 -18 -18 -18 -18 -18 -18 -18 -18 -18 -18
-22 -21 -21 -21 -21 -20 -20 -20 -20 -20 -20 -20 -20 -20 -20 -20 -19 -19 -19 -19 -19 -19 -19 -19 -19 -19 -19 -19 -18 -18 -18 -18 -18 -18 -18 -18 -18 -18 -18 -18 -18 -18
-21 -21 -21 -20 -20 -20 -20 -20 -20 -20 -20 -20 -20 -20 -20 -20 -19 -19 -19 -19 -19 -19 -19 -19 -19 -19 -19 -19 -19 -19 -18 -18 -18 -18 -18 -18 -17 -18 -18 -18 -18 -18
-21 -21 -21 -20 -20 -20 -20 -20 -20 -20 -20 -20 -20 -20 -19 -19 -19 -19 -19 -19 -19 -19 -19 -19 -19 -19 -19 -18 -18 -18 -18 -18 -18 -18 -18 -18 -18 -18 -18 -18 -18 -18
-20 -20 -20 -20 -20 -20 -20 -20 -19 -19 -20 -20 -19 -19 -19 -19 -19 -19 -19 -19 -19 -19 -19 -19 -19 -18 -18 -18 -18 -18 -18 -18 -18 -18 -18 -18 -18 -18 -18 -18 -18 -18
-20 -20 -20 -20 -20 -20 -20 -19 -19 -19 -19 -19 -19 -19 -19 -19 -19 -19 -19 -19 -19 -19 -19 -18 -18 -18 -18 -18 -18 -18 -18 -18 -18 -18 -18 -18 -18 -18 -17 -17 -17 -17
-20 -20 -20 -20 -20 -20 -20 -19 -19 -19 -19 -19 -19 -19 -19 -19 -19 -19 -19 -19 -19 -19 -19 -18 -18 -18 -18 -18 -18 -18 -18 -18 -18 -18 -18 -17 -17 -17 -17 -17 -17 -17
Height
2871 2869 2867 2865 2862 2860 2858 2856 2855 2855 2855 2855 2857 2857 2858 2858 2860 2861 2862 2864 2865 2866 2867 2867 2869 2870 2872 2874 2876 2878 2879 2880 2881 2883 2885 2887 2890 2892 2895 2898 2902 2905
2864 2862 2859 2856 2854 2852 2851 2850 2849 2848 2848 2850 2851 2851 2851 2853 2855 2856 2856 2857 2859 2860 2860 2861 2862 2864 2865 2867 2870 2871 2874 2875 2877 2878 2879 2881 2884 2886 2889 2892 2896 2899
2857 2854 2852 2848 2846 2845 2843 2843 2842 2841 2842 2843 2844 2844 2845 2847 2849 2850 2850 2851 2852 2854 2855 2855 2856 2857 2859 2861 2863 2865 2868 2870 2872 2874 2875 2876 2879 2881 2884 2887 2890 2893
2848 2846 2844 2841 2839 2837 2836 2835 2835 2835 2836 2836 2837 2838 2839 2841 2842 2843 2844 2845 2846 2848 2849 2850 2851 2852 2853 2855 2857 2860 2862 2865 2867 2869 2870 2871 2874 2876 2879 2882 2884 2887
2839 2837 2835 2833 2831 2830 2828 2827 2827 2827 2828 2829 2830 2831 2833 2835 2836 2836 2838 2840 2841 2842 2844 2845 2846 2847 2848 2850 2852 2854 2857 2859 2862 2864 2865 2867 2870 2871 2874 2876 2878 2881
2830 2828 2826 2824 2823 2822 2821 2820 2820 2820 2821 2822 2824 2825 2827 2829 2829 2831 2833 2835 2836 2837 2838 2840 2841 2842 2843 2845 2847 2849 2852 2854 2857 2859 2861 2863 2866 2867 2869 2871 2873 2876
2821 2820 2818 2816 2815 2814 2813 2813 2813 2814 2815 2816 2818 2819 2821 2822 2823 2826 2828 2829 2830 2832 2833 2835 2836 2837 2839 2841 2842 2844 2847 2850 2852 2854 2856 2859 2861 2863 2865 2867 2869 2871
2813 2811 2809 2808 2808 2807 2806 2806 2807 2807 2808 2810 2811 2813 2814 2816 2818 2821 2823 2823 2825 2827 2828 2829 2831 2832 2834 2836 2838 2840 2843 2845 2848 2850 2852 2854 2856 2858 2860 2862 2864 2866
2805 2803 2801 2800 2800 2800 2799 2799 2800 2801 2802 2803 2805 2807 2809 2811 2813 2816 2817 2818 2820 2821 2822 2824 2826 2827 2829 2831 2833 2836 2838 2841 2844 2846 2847 2849 2851 2853 2856 2858 2860 2862
2798 2796 2794 2793 2793 2793 2792 2793 2794 2795 2797 2798 2799 2802 2804 2806 2808 2810 2811 2813 2814 2816 2818 2820 2822 2823 2825 2827 2829 2831 2834 2837 2839 2841 2843 2845 2847 2849 2851 2854 2856 2858
2792 2790 2788 2787 2786 2786 2786 2787 2788 2790 2792 2793 2795 2797 2799 2801 2803 2805 2807 2809 2810 2812 2814 2816 2817 2819 2821 2823 2825 2828 2831 2833 2835 2837 2839 2841 2843 2845 2848 2850 2852 2854
2788 2786 2784 2782 2782 2782 2782 2783 2784 2786 2788 2790 2791 2793 2795 2797 2799 2801 2804 2805 2807 2809 2811 2813 2814 2815 2817 2819 2822 2824 2827 2829 2831 2833 2835 2838 2840 2842 2844 2846 2848 2850
2785 2783 2781 2780 2779 2779 2779 2780 2781 2782 2784 2786 2788 2790 2792 2794 2796 2799 2801 2803 2805 2806 2808 2809 2810 2811 2813 2815 2818 2821 2823 2826 2828 2830 2832 2835 2836 2838 2840 2842 2844 2846
2785 2782 2780 2778 2777 2777 2777 2778 2779 2780 2782 2784 2786 2788 2790 2792 2794 2797 2799 2801 2802 2803 2804 2805 2806 2808 2810 2812 2814 2817 2819 2821 2824 2826 2829 2831 2833 2835 2836 2838 2840 2842
2785 2782 2780 2778 2777 2776 2776 2776 2778 2779 2781 2782 2784 2786 2788 2790 2792 2794 2796 2798 2799 2799 2800 2801 2802 2804 2806 2808 2810 2813 2815 2818 2820 2823 2825 2827 2829 2831 2833 2834 2836 2838
2786 2783 2781 2779 2777 2776 2776 2777 2778 2779 2780 2782 2784 2786 2787 2789 2791 2792 2794 2795 2796 2796 2796 2797 2798 2800 2802 2804 2806 2809 2811 2814 2816 2819 2821 2823 2826 2827 2829 2831 2832 2834
2787 2785 2783 2781 2779 2778 2778 2778 2779 2780 2781 2783 2784 2786 2787 2789 2790 2791 2791 2792 2793 2793 2793 2794 2795 2797 2798 2800 2802 2805 2807 2810 2812 2815 2817 2820 2822 2824 2826 2828 2829 2830
2789 2787 2785 2783 2782 2781 2780 2780 2781 2782 2783 2784 2785 2786 2788 2789 2789 2790 2790 2790 2790 2791 2791 2791 2792 2793 2795 2796 2798 2801 2803 2806 2808 2811 2814 2816 2818 2821 2823 2825 2826 2827
2791 2789 2787 2786 2785 2784 2783 2783 2784 2784 2785 2786 2787 2788 2789 2789 2789 2789 2789 2789 2789 2789 2790 2790 2790 2791 2792 2794 2796 2798 2800 2802 2805 2808 2810 2813 2815 2817 2819 2821 2823 2824
2794 2792 2790 2789 2788 2787 2787 2787 2787 2787 2788 2788 2789 2790 2790 2791 2791 2790 2790 2790 2790 2790 2790 2790 2790 2790 2791 2792 2794 2796 2798 2799 2802 2804 2807 2809 2812 2814 2816 2818 2819 2820
2797 2795 2793 2792 2791 2791 2790 2790 2790 2790 2791 2791 2792 2792 2792 2792 2792 2792 2792 2792 2792 2791 2791 2791 2791 2791 2792 2792 2793 2795 2796 2797 2799 2801 2804 2806 2809 2811 2813 2815 2816 2817
2800 2798 2797 2796 2795 2794 2794 2794 2794 2794 2794 2794 2794 2794 2794 2794 2794 2794 2794 2793 2793 2793 2793 2793 2793 2793 2793 2794 2794 2795 2796 2797 2798 2799 2801 2804 2806 2808 2810 2812 2813 2814
2803 2802 2800 2799 2798 2797 2797 2797 2797 2796 2796 2796 2796 2796 2796 2796 2795 2795 2795 2795 2794 2794 2794 2794 2794 2794 2794 2795 2795 2796 2797 2797 2798 2799 2801 2802 2805 2806 2808 2809 2811 2812
2806 2804 2803 2802 2801 2800 2800 2799 2799 2799 2798 2798 2798 2797 2797 2797 2796 2796 2796 2795 2795 2794 2794 2794 2794 2794 2794 2795 2795 2796 2796 2797 2798 2799 2800 2801 2803 2804 2806 2807 2808 2809
2808 2807 2805 2804 2803 2803 2802 2801 2801 2800 2800 2800 2799 2799 2798 2797 2797 2796 2796 2795 2795 2794 2794 2794 2793 2793 2793 2793 2794 2794 2795 2796 2797 2798 2799 2800 2801 2802 2804 2805 2806 2807
2810 2809 2808 2807 2806 2805 2804 2803 2803 2802 2801 2801 2800 2800 2799 2798 2798 2797 2796 2795 2795 2794 2793 2792 2792 2792 2792 2792 2792 2793 2794 2794 2795 2796 2797 2798 2799 2800 2801 2802 2803 2804
Wind_Speed
41 42 42 44 47 50 51 52 51 50 48 44 41 40 40 38 35 35 35 35 36 36 38 39 38 39 41 45 46 44 41 42 45 47 48 50 53 55 59 62 64 65
40 42 44 47 50 51 52 51 50 48 46 43 41 41 41 39 38 38 38 38 37 36 37 38 38 38 40 43 45 44 41 41 44 46 48 49 50 51 54 58 60 63
41 42 45 49 51 52 52 51 49 47 44 42 39 40 42 41 39 40 41 39 36 34 35 36 37 37 39 41 43 43 41 40 41 44 47 48 48 48 49 52 56 59
42 43 45 48 50 51 51 50 49 46 44 42 40 40 42 41 40 42 41 38 35 33 33 34 35 36 38 39 40 41 41 40 40 42 45 47 47 47 46 47 50 54
41 42 44 46 47 49 50 50 49 46 44 43 41 41 41 40 42 43 41 37 34 33 33 34 34 35 37 37 38 40 40 40 40 41 43 46 47 47 46 45 45 47
38 39 41 43 44 46 47 49 48 46 44 42 42 42 41 41 44 44 41 37 35 34 34 34 34 34 35 36 37 39 39 39 39 39 41 42 44 46 46 45 44 44
37 37 38 39 41 43 45 46 46 44 43 41 40 41 41 43 44 42 39 37 36 35 35 33 33 33 34 34 36 38 39 39 38 38 40 40 40 42 44 44 43 42
37 37 38 38 38 40 42 44 43 43 41 39 38 38 39 41 42 39 37 36 36 35 35 33 32 32 33 34 36 38 38 39 38 38 39 39 39 39 41 43 42 40
37 36 36 37 37 37 39 40 41 40 40 39 38 37 37 37 37 35 35 35 35 35 35 34 32 32 34 35 36 38 38 38 37 37 38 38 38 39 39 41 42 40
36 34 32 32 33 34 35 36 37 37 37 37 36 35 34 34 34 34 34 35 35 34 34 32 31 31 33 36 37 38 38 38 37 37 37 37 37 38 39 41 42 41
32 31 28 28 28 29 30 31 32 33 34 34 33 32 32 32 33 33 33 33 33 32 31 31 30 30 32 36 37 38 38 38 38 38 38 37 37 37 38 40 41 41
28 26 24 23 22 23 24 25 27 29 29 29 29 29 29 30 32 31 31 31 30 29 29 29 29 30 32 35 37 37 36 37 38 39 37 35 35 35 36 38 40 40
23 21 19 18 17 17 18 20 22 24 25 25 25 25 26 27 28 28 29 28 27 26 26 26 28 29 31 34 36 37 36 36 36 36 34 32 32 33 34 36 38 39
20 18 16 15 13 13 13 15 17 19 21 21 22 22 22 23 24 25 26 26 25 25 25 26 27 28 30 33 36 37 36 36 35 34 32 31 30 29 30 32 35 37
19 17 15 13 11 9 9 10 12 14 15 16 17 18 18 19 20 21 22 23 23 24 25 26 26 26 29 32 36 37 37 36 34 33 32 30 29 27 27 28 31 33
19 17 15 13 10 7 5 4 5 6 8 9 11 12 13 14 16 17 19 20 22 23 24 25 25 24 26 31 35 38 38 37 35 34 33 31 29 28 26 26 27 30
19 17 15 13 11 9 6 5 3 3 2 2 3 4 6 8 11 13 15 17 18 19 21 22 22 23 24 28 32 36 38 38 37 35 34 33 32 30 28 26 25 27
19 17 15 14 12 11 10 10 10 9 8 7 5 3 1 2 4 6 9 11 12 13 15 17 18 20 22 24 28 31 34 36 37 37 36 35 34 33 31 28 26 26
19 17 16 15 14 14 13 13 13 13 12 12 11 10 8 7 5 3 3 3 4 6 8 11 13 15 17 20 23 26 29 31 32 34 35 35 35 34 32 30 28 26
19 19 18 17 17 16 16 16 15 14 14 14 14 12 11 10 9 8 8 7 6 5 2 1 3 6 8 11 16 20 25 28 30 30 31 32 33 32 31 29 26 24
20 20 19 19 19 19 18 17 16 15 14 14 13 12 10 9 8 8 8 7 7 7 7 6 5 3 2 3 5 7 12 19 23 26 27 29 30 29 29 27 24 23
20 20 20 19 19 19 18 17 16 14 13 11 10 8 7 5 4 5 5 4 3 4 5 4 3 3 1 2 5 4 5 9 13 16 20 22 24 24 24 23 21 21
18 18 18 17 16 16 16 15 14 12 10 8 7 6 6 5 3 3 3 4 5 4 3 3 3 3 3 3 4 7 9 11 12 14 15 17 18 20 20 21 20 21
16 17 17 17 16 16 16 15 13 11 9 9 9 9 9 8 7 6 6 6 7 7 7 7 7 7 6 6 7 8 11 12 13 15 15 16 18 19 21 22 22 22
15 16 17 17 17 16 16 15 14 13 12 12 12 11 11 11 10 9 9 8 7 7 7 7 8 9 8 8 9 10 11 12 13 14 16 17 19 20 21 21 22 22
13 14 16 17 17 17 16 15 15 14 14 14 13 13 13 13 12 11 11 10 10 10 10 9 9 9 9 10 10 10 11 11 12 14 15 16 17 18 18 19 19 20
Wind_Direction
279 281 280 277 276 276 276 277 278 278 277 275 274 271 268 265 263 262 260 258 257 258 259 258 254 249 244 242 243 244 245 245 245 245 245 244 244 242 240 237 234 232
279 280 279 276 277 279 279 279 278 278 277 277 275 270 265 262 262 263 262 261 260 258 258 256 253 249 244 241 242 243 243 241 241 243 243 243 242 243 242 241 239 237
280 280 279 278 279 280 279 279 278 276 276 275 272 267 262 261 261 263 264 264 262 258 256 255 252 249 244 241 240 241 241 241 239 239 241 242 242 242 241 241 241 240
284 281 279 277 278 278 278 277 275 274 273 270 266 262 260 260 261 263 265 265 263 259 257 255 253 249 245 241 239 238 239 240 239 237 238 240 242 243 242 241 241 241
286 282 278 275 274 274 274 274 273 271 268 264 261 258 257 257 258 261 265 265 263 261 257 254 254 251 246 242 238 236 236 238 238 236 236 238 240 242 243 242 242 241
288 282 278 274 273 270 269 270 270 270 268 264 260 257 255 255 256 260 265 265 264 261 257 254 254 251 247 242 236 234 234 235 236 236 236 238 239 241 242 243 243 242
292 286 280 275 272 269 268 268 269 269 269 267 264 260 257 255 256 260 263 263 262 261 257 256 256 252 245 240 234 232 233 234 234 235 237 238 239 240 240 241 242 241
295 290 284 278 273 270 268 267 267 267 266 265 262 258 255 254 256 258 259 259 260 260 257 256 255 250 242 236 231 231 232 233 234 235 236 238 239 239 238 238 240 240
298 293 286 281 276 270 266 264 263 263 263 262 260 256 254 253 253 253 254 255 257 256 255 255 254 247 239 232 228 229 230 231 234 235 236 237 239 238 235 234 236 237
302 297 290 283 277 271 266 262 260 259 258 259 259 257 255 251 249 248 248 250 251 251 253 254 253 246 238 232 228 228 228 229 232 235 237 238 238 238 235 233 234 234
307 302 295 287 279 273 268 261 258 257 256 256 256 256 255 250 246 246 246 247 248 249 252 255 253 245 236 231 230 229 229 230 232 234 237 238 238 238 236 235 235 235
312 307 300 293 285 279 271 261 256 254 254 254 253 254 253 249 246 246 247 248 248 250 254 256 255 247 237 231 230 230 231 232 234 236 238 239 239 239 238 237 237 237
321 315 308 301 294 285 273 261 254 252 251 249 247 249 251 249 248 247 248 250 252 254 258 258 256 249 239 232 230 231 231 232 234 236 237 239 241 241 240 239 239 240
333 327 320 314 304 292 275 261 253 248 246 243 242 246 247 246 247 248 249 252 254 257 258 258 256 249 240 233 230 231 232 232 233 235 236 239 241 242 241 241 242 242
345 342 337 332 323 307 283 265 254 246 241 238 239 243 243 242 244 246 249 252 255 257 257 255 253 247 240 235 231 231 232 233 233 234 235 238 240 241 243 245 246 245
355 354 353 352 350 342 320 284 256 240 235 234 237 240 241 243 246 249 254 256 257 259 257 255 251 245 240 235 232 233 233 233 233 233 234 236 238 241 245 250 251 249
1 3 6 11 17 25 38 55 76 96 128 177 211 229 239 250 254 258 262 263 262 261 257 254 250 245 240 235 233 234 235 235 234 234 234 236 238 242 246 250 253 252
7 10 16 23 31 42 54 65 75 79 83 87 88 88 70 290 274 273 273 271 269 264 258 256 251 246 242 236 232 233 235 237 237 236 237 238 240 244 247 248 254 256
17 21 27 35 44 52 60 66 73 78 82 84 83 80 74 67 59 41 12 329 298 278 264 259 254 250 245 239 234 232 234 236 238 238 239 240 241 243 245 247 252 254
29 33 38 45 53 59 64 68 75 80 85 86 82 75 68 63 59 55 55 58 55 48 28 325 263 251 245 238 235 233 234 237 238 237 237 238 239 240 242 246 248 248
38 40 44 50 54 58 62 68 74 78 80 77 68 57 50 47 46 43 43 53 67 72 65 56 61 79 119 187 203 224 237 238 236 235 234 234 237 238 240 240 239 240
44 45 48 50 54 57 60 65 70 72 70 65 58 53 47 46 48 38 25 16 28 56 55 37 27 40 62 168 161 172 222 235 232 228 227 228 232 233 233 233 234 238
48 49 49 49 51 54 57 61 65 66 62 51 38 29 21 14 4 344 325 306 300 308 320 305 289 291 277 241 201 196 213 225 226 223 220 221 226 229 231 234 239 243
47 49 50 51 52 54 55 56 57 58 55 43 34 27 20 14 5 349 328 305 291 289 288 280 274 270 260 248 237 228 226 228 227 226 226 227 230 233 236 239 243 246
47 50 51 49 48 48 46 44 45 49 47 42 37 31 26 22 15 4 349 331 310 297 291 279 270 267 260 245 236 232 232 234 234 235 236 237 238 241 243 246 249 251
48 47 45 44 42 41 41 41 41 42 40 35 28 22 17 12 5 358 351 337 320 307 297 282 262 252 248 245 243 240 237 236 236 236 236 237 239 241 243 246 249 251